Date,Time,Wetness (Wet Dry or Ice),Wind Speed (m/s),Temperature (C),Humidity (%),Pressure (mb),Radiation (W/m^2)
2020-10-24,03:05:00,DRY,3.80,8.85,8.0,777.50,1.3
2020-10-24,03:10:00,DRY,3.13,8.97,8.0,777.00,1.1
2020-10-24,03:15:00,DRY,3.75,9.15,7.5,777.00,1.1
2020-10-24,03:20:00,DRY,3.27,9.07,7.3,777.00,1.5
2020-10-24,03:25:00,DRY,3.10,9.00,7.5,777.00,1.4
2020-10-24,03:30:00,DRY,2.83,8.80,8.0,777.00,1.9
2020-10-24,03:35:00,DRY,2.80,9.00,7.0,777.00,1.2
2020-10-24,03:40:00,DRY,2.43,9.30,6.7,777.00,1.5
2020-10-24,03:45:00,DRY,2.30,9.40,6.5,777.00,1.1
2020-10-24,03:50:00,DRY,2.27,9.50,6.3,777.00,0.8
2020-10-24,03:55:00,DRY,1.80,9.55,8.0,777.00,2.1
2020-10-24,04:00:00,DRY,2.23,9.43,8.0,777.00,1.5
2020-10-24,04:05:00,DRY,1.65,9.30,8.0,777.00,1.5
2020-10-24,04:10:00,DRY,1.90,9.30,7.3,777.00,1.6
2020-10-24,04:15:00,DRY,2.80,9.40,8.0,777.00,1.6
2020-10-24,04:20:00,DRY,3.30,9.50,7.7,777.00,1.0
2020-10-24,04:25:00,DRY,3.60,9.00,8.0,777.00,1.5
2020-10-24,04:30:00,DRY,2.87,9.10,8.0,777.00,0.9
2020-10-24,04:35:00,DRY,2.45,9.20,8.0,777.00,0.9
2020-10-24,04:40:00,DRY,2.57,9.13,8.3,777.00,2.1
2020-10-24,04:45:00,DRY,2.20,9.35,8.0,777.00,2.0
2020-10-24,04:50:00,DRY,2.43,9.20,9.0,777.00,0.9
2020-10-24,04:55:00,DRY,1.75,9.00,9.5,777.00,0.8
2020-10-24,05:00:00,DRY,3.63,9.07,9.0,777.00,1.0
2020-10-24,05:05:00,DRY,2.55,9.20,9.0,777.00,1.2
2020-10-24,05:10:00,DRY,2.23,9.40,8.3,777.00,2.0
2020-10-24,05:15:00,DRY,2.30,9.55,7.0,777.50,1.2
2020-10-24,05:20:00,DRY,1.67,9.70,7.3,777.33,0.9
2020-10-24,05:25:00,DRY,1.50,9.60,7.0,777.50,1.8
2020-10-24,05:30:00,DRY,1.40,9.57,7.7,777.00,2.0
2020-10-24,05:35:00,DRY,1.30,9.35,8.0,777.50,1.4
2020-10-24,05:40:00,DRY,2.00,9.47,7.7,777.33,1.0
2020-10-24,05:45:00,DRY,1.75,10.05,6.5,777.00,1.2
2020-10-24,05:50:00,DRY,1.50,9.97,6.7,777.33,1.4
2020-10-24,05:55:00,DRY,1.30,9.25,8.0,778.00,1.1
2020-10-24,06:00:00,DRY,1.67,9.50,7.3,777.67,1.1
2020-10-24,06:05:00,DRY,1.85,9.55,8.0,777.50,2.5
2020-10-24,06:10:00,DRY,1.87,9.77,8.0,778.00,1.0
2020-10-24,06:15:00,DRY,2.50,9.55,9.0,778.00,1.7
2020-10-24,06:20:00,DRY,2.20,9.27,9.7,778.00,1.1
2020-10-24,06:25:00,DRY,2.05,9.35,9.0,777.50,1.5
2020-10-24,06:30:00,DRY,2.40,9.50,9.0,778.00,0.9
2020-10-24,06:35:00,DRY,2.45,8.50,11.5,778.00,0.9
2020-10-24,06:40:00,DRY,2.63,8.67,10.0,778.00,0.8
2020-10-24,06:45:00,DRY,1.90,8.60,8.5,778.00,0.8
2020-10-24,06:50:00,DRY,1.63,9.90,6.3,778.00,2.1
2020-10-24,06:55:00,DRY,0.45,9.90,7.5,778.00,1.1
2020-10-24,07:00:00,DRY,0.70,9.47,7.0,778.00,1.0
2020-10-24,07:05:00,DRY,0.40,9.20,6.5,778.00,2.1
2020-10-24,07:10:00,DRY,0.97,9.70,5.7,778.00,3.1
2020-10-24,07:15:00,DRY,1.85,10.35,5.5,778.00,4.5
2020-10-24,07:20:00,DRY,1.73,9.47,7.3,778.00,7.0
2020-10-24,07:25:00,DRY,1.90,9.05,8.0,778.00,9.9
2020-10-24,07:30:00,DRY,2.67,8.53,8.7,778.00,14.1
2020-10-24,07:35:00,DRY,2.90,9.10,8.5,778.00,16.9
2020-10-24,07:40:00,DRY,2.50,8.70,9.0,778.00,19.5
2020-10-24,07:45:00,DRY,2.65,9.50,8.5,778.00,20.9
2020-10-24,07:50:00,DRY,3.23,9.33,8.7,778.00,23.2
2020-10-24,07:55:00,DRY,3.00,9.40,9.0,778.00,40.2
2020-10-24,08:00:00,DRY,3.03,9.53,9.0,778.00,180.0
2020-10-24,08:05:00,DRY,2.80,9.80,9.0,778.00,202.2
2020-10-24,08:10:00,DRY,1.97,9.93,9.0,778.00,225.2
2020-10-24,08:15:00,DRY,2.10,10.30,8.5,778.00,247.4
2020-10-24,08:20:00,DRY,1.30,10.20,9.0,778.00,270.2
2020-10-24,08:25:00,DRY,1.10,10.50,9.0,778.00,293.4
2020-10-24,08:30:00,DRY,2.50,10.57,9.3,778.00,316.3
2020-10-24,08:35:00,DRY,3.00,10.50,9.0,778.00,338.4
2020-10-24,08:40:00,DRY,3.13,10.47,8.7,778.00,361.0
2020-10-24,08:45:00,DRY,2.55,10.80,8.0,778.00,382.8
2020-10-24,08:50:00,DRY,2.13,11.10,7.7,778.00,405.4
2020-10-24,08:55:00,DRY,1.50,11.00,8.5,778.00,427.8
2020-10-24,09:00:00,DRY,2.40,11.00,9.0,778.00,449.3
2020-10-24,09:05:00,DRY,3.30,10.85,9.0,778.00,470.4
2020-10-24,09:10:00,DRY,1.07,11.23,9.7,778.00,491.0
2020-10-24,09:15:00,DRY,1.95,11.45,9.0,778.00,510.8
2020-10-24,09:20:00,DRY,1.60,11.43,9.0,778.00,531.8
2020-10-24,09:25:00,DRY,2.65,11.55,9.5,778.00,552.0
2020-10-24,09:30:00,DRY,1.67,11.70,9.3,778.00,572.0
2020-10-24,09:35:00,DRY,1.50,11.80,9.0,778.50,591.0
2020-10-24,09:40:00,DRY,0.53,12.33,10.0,779.00,609.6
2020-10-24,09:45:00,DRY,1.00,12.20,8.5,779.00,628.1
2020-10-24,09:50:00,DRY,0.57,12.00,11.0,779.00,646.0
2020-10-24,09:55:00,DRY,1.20,12.15,11.0,779.00,664.0
2020-10-24,10:00:00,DRY,0.90,12.20,10.0,778.67,679.6
2020-10-24,10:05:00,DRY,1.15,12.55,9.5,779.00,696.3
2020-10-24,10:10:00,DRY,2.40,11.97,10.3,779.00,713.3
2020-10-24,10:15:00,DRY,1.40,12.00,9.5,779.00,729.2
2020-10-24,10:20:00,DRY,0.83,12.60,10.3,779.00,745.5
2020-10-24,10:25:00,DRY,1.40,12.70,12.5,779.00,759.6
2020-10-24,10:30:00,DRY,1.30,12.20,13.7,779.00,774.0
2020-10-24,10:35:00,DRY,0.80,12.40,11.5,779.00,788.5
2020-10-24,10:40:00,DRY,2.00,12.40,11.3,779.00,801.0
2020-10-24,10:45:00,DRY,1.75,12.40,11.5,779.00,814.3
2020-10-24,10:50:00,DRY,1.33,12.70,14.0,779.00,827.5
2020-10-24,10:55:00,DRY,1.40,12.60,16.0,779.00,839.0
2020-10-24,11:00:00,DRY,1.43,12.70,14.7,779.00,850.9
2020-10-24,11:05:00,DRY,1.75,12.75,15.0,779.00,860.7
2020-10-24,11:10:00,DRY,0.70,12.77,16.0,779.00,872.6
2020-10-24,11:15:00,DRY,1.20,13.05,17.0,779.00,882.6
2020-10-24,11:20:00,DRY,0.87,13.33,13.0,779.00,893.0
2020-10-24,11:25:00,DRY,2.10,13.30,14.0,779.00,901.6
2020-10-24,11:30:00,DRY,1.77,13.13,19.3,779.00,908.7
2020-10-24,11:35:00,DRY,2.50,12.85,20.5,779.00,916.6
2020-10-24,11:40:00,DRY,2.63,12.40,17.7,779.00,925.1
2020-10-24,11:45:00,DRY,3.00,12.45,13.5,779.00,930.6
2020-10-24,11:50:00,DRY,2.87,12.47,12.3,779.00,937.7
2020-10-24,11:55:00,DRY,2.35,12.40,13.0,779.00,945.2
2020-10-24,12:00:00,DRY,1.57,12.53,14.3,779.00,951.9
2020-10-24,12:05:00,DRY,2.35,12.80,11.0,779.00,955.5
2020-10-24,12:10:00,DRY,1.57,13.17,12.7,779.00,960.7
2020-10-24,12:15:00,DRY,2.20,13.10,12.0,779.00,965.4
2020-10-24,12:20:00,DRY,0.73,13.33,13.3,779.00,969.0
2020-10-24,12:25:00,DRY,1.35,13.40,13.0,779.00,974.5
2020-10-24,12:30:00,DRY,1.40,13.50,12.3,778.67,977.2
2020-10-24,12:35:00,DRY,1.20,13.90,10.0,778.00,979.7
2020-10-24,12:40:00,DRY,0.87,13.70,12.0,778.33,981.6
2020-10-24,12:45:00,DRY,0.85,13.65,13.0,778.00,982.5
2020-10-24,12:50:00,DRY,1.40,14.07,16.0,778.00,983.9
2020-10-24,12:55:00,DRY,1.85,13.90,15.5,778.00,984.4
2020-10-24,13:00:00,DRY,1.57,13.63,11.7,778.00,982.8
2020-10-24,13:05:00,DRY,2.05,13.80,12.0,778.00,981.4
2020-10-24,13:10:00,DRY,1.00,13.73,15.0,778.00,979.2
2020-10-24,13:15:00,DRY,1.40,13.85,12.5,778.00,973.5
2020-10-24,13:20:00,DRY,1.30,13.53,14.7,778.00,974.4
2020-10-24,13:25:00,DRY,2.15,13.60,16.0,778.00,970.4
2020-10-24,13:30:00,DRY,1.70,13.00,16.0,778.00,968.0
2020-10-24,13:35:00,DRY,1.60,13.30,17.0,778.00,963.4
2020-10-24,13:40:00,DRY,1.90,13.30,14.7,778.00,959.6
2020-10-24,13:45:00,DRY,2.70,13.45,14.5,778.00,953.6
2020-10-24,13:50:00,DRY,2.60,13.10,13.7,778.00,947.2
2020-10-24,13:55:00,DRY,2.50,13.10,14.5,778.00,941.5
2020-10-24,14:00:00,DRY,1.60,13.17,15.3,778.00,932.4
2020-10-24,14:05:00,DRY,2.30,13.35,14.5,778.00,925.8
2020-10-24,14:10:00,DRY,1.43,13.40,14.3,778.00,919.1
2020-10-24,14:15:00,DRY,2.55,13.10,13.0,778.00,911.2
2020-10-24,14:20:00,DRY,1.17,13.07,15.7,778.00,902.5
2020-10-24,14:25:00,DRY,2.20,13.20,19.5,778.00,895.3
2020-10-24,14:30:00,DRY,2.43,13.10,20.7,778.00,887.6
2020-10-24,14:35:00,DRY,1.35,12.60,14.5,778.00,879.0
2020-10-24,14:40:00,DRY,1.63,13.00,15.3,778.00,866.9
2020-10-24,14:45:00,DRY,1.45,12.95,34.0,778.00,857.0
2020-10-24,14:50:00,DRY,1.57,11.87,30.0,778.00,847.6
2020-10-24,14:55:00,DRY,2.05,11.85,34.5,778.00,841.6
2020-10-24,15:00:00,DRY,1.43,12.03,21.7,778.00,838.3
2020-10-24,15:05:00,DRY,1.20,12.50,25.5,778.00,749.8
2020-10-24,15:10:00,DRY,1.13,12.97,22.0,778.00,757.8
2020-10-24,15:15:00,DRY,0.60,12.20,20.0,778.00,763.1
2020-10-24,15:20:00,DRY,0.77,12.20,19.7,778.00,744.2
2020-10-24,15:25:00,DRY,1.75,12.00,31.5,778.00,581.5
2020-10-24,15:30:00,DRY,1.40,11.57,32.7,778.00,506.0
2020-10-24,15:35:00,DRY,1.50,11.10,35.5,778.00,586.0
2020-10-24,15:40:00,DRY,1.10,11.57,26.0,778.00,562.4
2020-10-24,15:45:00,DRY,1.30,11.70,20.0,778.00,550.0
2020-10-24,15:50:00,DRY,0.70,12.00,24.7,778.00,469.1
2020-10-24,15:55:00,DRY,1.50,12.20,18.5,778.00,529.2
2020-10-24,16:00:00,DRY,1.83,12.10,14.0,778.00,515.1
2020-10-24,16:05:00,DRY,2.20,12.05,15.0,778.00,381.1
2020-10-24,16:10:00,DRY,1.27,12.23,15.0,778.00,303.4
2020-10-24,16:15:00,DRY,0.50,12.15,16.0,778.00,447.2
2020-10-24,16:20:00,DRY,1.10,12.63,16.0,778.00,547.1
2020-10-24,16:25:00,DRY,1.65,12.55,14.0,778.00,437.2
2020-10-24,16:30:00,DRY,2.03,12.13,15.0,778.00,580.8
2020-10-24,16:35:00,DRY,1.85,12.05,15.0,778.00,437.6
2020-10-24,16:40:00,DRY,1.97,11.77,18.0,778.00,349.1
2020-10-24,16:45:00,DRY,2.65,11.10,23.5,778.00,305.9
2020-10-24,16:50:00,DRY,2.03,11.03,25.3,778.00,469.9
2020-10-24,16:55:00,DRY,2.05,11.85,21.5,778.00,441.2
2020-10-24,17:00:00,DRY,1.03,12.30,15.3,778.00,243.0
2020-10-24,17:05:00,DRY,1.15,11.35,31.0,778.00,215.8
2020-10-24,17:10:00,DRY,1.10,10.83,27.3,778.00,232.8
2020-10-24,17:15:00,DRY,1.60,11.65,12.5,778.00,413.3
2020-10-24,17:20:00,DRY,1.90,11.53,22.0,778.00,326.3
2020-10-24,17:25:00,DRY,1.80,10.90,28.5,778.00,241.8
2020-10-24,17:30:00,DRY,0.90,10.50,28.0,778.00,206.2
2020-10-24,17:35:00,DRY,0.60,10.50,30.0,778.00,137.8
2020-10-24,17:40:00,DRY,0.47,10.53,28.7,778.00,94.7
2020-10-24,17:45:00,DRY,1.15,10.75,27.5,778.00,142.3
2020-10-24,17:50:00,DRY,1.00,11.03,22.0,778.00,128.8
2020-10-24,17:55:00,DRY,0.90,11.30,19.5,778.00,133.2
2020-10-24,18:00:00,DRY,1.33,11.47,15.0,778.00,118.2
2020-10-24,18:05:00,DRY,1.75,11.20,13.5,778.00,52.6
2020-10-24,18:10:00,DRY,1.73,10.83,11.0,778.00,48.8
2020-10-24,18:15:00,DRY,1.15,10.55,11.0,778.00,34.9
2020-10-24,18:20:00,DRY,1.97,10.37,12.3,778.00,23.4
2020-10-24,18:25:00,DRY,2.00,10.30,9.5,778.00,15.3
2020-10-24,18:30:00,DRY,0.67,10.23,10.0,778.00,9.7
2020-10-24,18:35:00,DRY,1.35,10.15,10.0,778.00,6.3
2020-10-24,18:40:00,DRY,1.30,9.87,10.3,778.00,9.3
2020-10-24,18:45:00,DRY,1.40,9.60,10.5,778.00,4.8
2020-10-24,18:50:00,DRY,0.60,9.47,10.0,778.00,2.5
2020-10-24,18:55:00,DRY,0.75,9.45,9.5,778.00,2.0
2020-10-24,19:00:00,DRY,0.60,9.40,9.3,778.00,1.4
2020-10-24,19:05:00,DRY,0.40,9.35,9.0,778.00,1.0
2020-10-24,19:10:00,DRY,0.93,9.20,10.0,778.00,0.2
2020-10-24,19:15:00,DRY,0.75,9.00,10.0,778.00,1.4
2020-10-24,19:20:00,DRY,0.77,9.27,9.3,778.00,1.7
2020-10-24,19:25:00,DRY,0.65,9.20,9.5,778.00,1.2
2020-10-24,19:30:00,DRY,0.83,9.40,8.7,778.67,1.0
2020-10-24,19:35:00,DRY,1.60,9.70,8.0,779.00,1.2
2020-10-24,19:40:00,DRY,1.00,9.53,8.7,778.67,1.2
2020-10-24,19:45:00,DRY,1.00,9.25,9.5,779.00,0.5
2020-10-24,19:50:00,DRY,0.67,9.00,10.3,779.00,1.1
2020-10-24,19:55:00,DRY,0.70,9.15,8.0,779.00,0.6
2020-10-24,20:00:00,DRY,0.40,9.37,7.0,779.00,1.2
2020-10-24,20:05:00,DRY,0.80,9.45,7.0,779.00,1.1
2020-10-24,20:10:00,DRY,0.40,9.50,8.3,779.00,1.0
2020-10-24,20:15:00,DRY,0.90,9.50,7.0,779.00,1.4
2020-10-24,20:20:00,DRY,0.67,9.77,6.7,779.00,1.1
2020-10-24,20:25:00,DRY,1.00,9.80,8.0,779.00,1.4
2020-10-24,20:30:00,DRY,0.57,9.77,7.0,779.00,1.1
2020-10-24,20:35:00,DRY,0.75,9.75,6.5,779.00,0.6
2020-10-24,20:40:00,DRY,1.47,10.07,7.3,779.00,0.5
2020-10-24,20:45:00,DRY,0.95,9.50,8.0,779.00,0.9
2020-10-24,20:50:00,DRY,1.03,9.67,7.3,779.00,1.4
2020-10-24,20:55:00,DRY,1.40,9.85,7.0,779.00,2.3
2020-10-24,21:00:00,DRY,1.27,10.17,6.0,779.00,2.0
2020-10-24,21:05:00,DRY,1.40,10.55,6.0,779.00,0.5
2020-10-24,21:10:00,DRY,1.80,9.67,8.0,779.00,1.0
2020-10-24,21:15:00,DRY,1.75,9.75,7.5,779.00,1.6
2020-10-24,21:20:00,DRY,2.00,9.80,8.0,779.00,0.7
2020-10-24,21:25:00,DRY,2.40,9.05,10.0,779.00,1.0
2020-10-24,21:30:00,DRY,2.13,9.20,8.7,779.00,1.1
2020-10-24,21:35:00,DRY,2.45,8.70,10.5,779.00,1.0
2020-10-24,21:40:00,DRY,2.77,8.47,11.0,779.00,1.5
2020-10-24,21:45:00,DRY,3.30,8.50,10.0,779.00,1.2
2020-10-24,21:50:00,DRY,3.17,9.53,8.7,779.00,1.2
2020-10-24,21:55:00,DRY,2.70,9.20,9.0,779.00,1.1
2020-10-24,22:00:00,DRY,3.77,9.83,8.3,779.00,1.0
2020-10-24,22:05:00,DRY,3.20,10.00,7.5,779.00,1.1
2020-10-24,22:10:00,DRY,4.33,10.10,7.0,779.00,1.2
2020-10-24,22:15:00,DRY,4.60,10.35,7.0,779.00,1.5
2020-10-24,22:20:00,DRY,4.53,10.37,7.3,779.00,1.0
2020-10-24,22:25:00,DRY,4.25,10.10,7.0,779.00,1.1
2020-10-24,22:30:00,DRY,4.93,10.10,7.3,779.00,1.7
2020-10-24,22:35:00,DRY,4.60,9.90,8.0,779.00,2.2
2020-10-24,22:40:00,DRY,5.53,9.93,8.0,779.00,1.1
2020-10-24,22:45:00,DRY,4.80,9.95,8.0,779.00,1.4
2020-10-24,22:50:00,DRY,4.47,9.97,8.0,779.00,1.2
2020-10-24,22:55:00,DRY,3.50,10.50,6.5,779.00,0.9
2020-10-24,23:00:00,DRY,3.47,10.37,7.0,779.00,1.1
2020-10-24,23:05:00,DRY,4.50,10.60,6.5,779.00,1.0
2020-10-24,23:10:00,DRY,4.30,10.50,6.7,779.00,1.2
2020-10-24,23:15:00,DRY,3.95,10.35,6.5,779.00,1.1
2020-10-24,23:20:00,DRY,3.57,10.13,7.3,779.00,1.1
2020-10-24,23:25:00,DRY,4.25,10.15,6.5,779.00,0.3
2020-10-24,23:30:00,DRY,3.40,10.37,6.7,779.00,1.2
2020-10-24,23:35:00,DRY,2.95,10.25,7.0,779.00,0.9
2020-10-24,23:40:00,DRY,3.40,10.33,6.7,779.00,1.5
2020-10-24,23:45:00,DRY,3.70,10.60,6.0,779.00,1.3
2020-10-24,23:50:00,DRY,2.60,10.60,6.3,779.00,1.8
2020-10-24,23:55:00,DRY,2.05,10.60,6.0,779.00,1.1
2020-10-25,00:00:00,DRY,1.90,10.43,6.7,779.00,1.2
2020-10-25,00:05:00,DRY,2.65,10.35,7.0,779.00,0.6
2020-10-25,00:10:00,DRY,3.00,10.30,7.0,779.00,1.1
2020-10-25,00:15:00,DRY,3.20,10.40,7.0,779.00,0.9
2020-10-25,00:20:00,DRY,3.77,10.60,6.3,779.00,1.3
2020-10-25,00:25:00,DRY,4.15,10.55,6.5,779.00,0.8
2020-10-25,00:30:00,DRY,4.10,10.47,6.3,779.00,1.5
2020-10-25,00:35:00,DRY,4.80,10.45,6.5,779.00,1.2
2020-10-25,00:40:00,DRY,4.80,10.53,6.3,779.00,1.2
2020-10-25,00:45:00,DRY,3.25,10.55,6.5,779.00,1.2
2020-10-25,00:50:00,DRY,3.97,10.40,7.0,779.00,1.3
2020-10-25,00:55:00,DRY,3.90,10.05,7.5,779.00,1.4
2020-10-25,01:00:00,DRY,4.20,9.87,8.0,778.00,1.4
2020-10-25,01:05:00,DRY,5.85,9.90,8.0,778.50,1.1
2020-10-25,01:10:00,DRY,3.57,9.87,7.7,778.00,1.3
2020-10-25,01:15:00,DRY,4.35,9.90,8.0,778.00,1.1
2020-10-25,01:20:00,DRY,5.07,9.90,7.7,778.00,1.0
2020-10-25,01:25:00,DRY,4.25,10.05,8.0,778.00,1.1
2020-10-25,01:30:00,DRY,4.23,10.03,8.3,778.00,1.2
2020-10-25,01:35:00,DRY,2.95,10.00,7.5,778.00,1.6
2020-10-25,01:40:00,DRY,4.67,9.90,7.0,778.00,1.4
2020-10-25,01:45:00,DRY,2.50,9.80,8.5,778.00,1.7
2020-10-25,01:50:00,DRY,2.93,9.97,7.7,778.00,1.0
2020-10-25,01:55:00,DRY,3.75,10.45,7.0,778.00,0.8
2020-10-25,02:00:00,DRY,2.87,10.67,6.7,778.00,1.9
2020-10-25,02:05:00,DRY,4.00,10.75,6.0,778.00,1.2
2020-10-25,02:10:00,DRY,3.17,10.47,7.0,778.00,1.3
2020-10-25,02:15:00,DRY,3.95,10.50,7.0,778.00,1.1
2020-10-25,02:20:00,DRY,3.90,10.67,7.0,778.00,1.2
2020-10-25,02:25:00,DRY,4.20,10.20,7.5,778.00,1.0
2020-10-25,02:30:00,DRY,4.63,9.67,8.3,778.00,1.9
2020-10-25,02:35:00,DRY,4.45,10.10,8.0,778.00,1.2
2020-10-25,02:40:00,DRY,3.90,10.73,7.0,778.00,2.1
2020-10-25,02:45:00,DRY,3.95,10.85,7.0,778.00,1.2
2020-10-25,02:50:00,DRY,2.93,11.03,7.0,778.00,1.4
2020-10-25,02:55:00,DRY,4.15,10.85,7.0,778.00,1.4
2020-10-25,03:00:00,DRY,2.67,10.53,7.0,778.00,1.1
2020-10-25,03:05:00,DRY,3.25,10.40,7.0,778.00,1.3
2020-10-25,03:10:00,DRY,2.87,10.53,7.0,778.00,0.9
2020-10-25,03:15:00,DRY,3.20,10.35,7.0,778.00,1.3
2020-10-25,03:20:00,DRY,3.30,10.30,7.3,778.00,1.7
2020-10-25,03:25:00,DRY,1.65,10.45,7.0,778.00,0.4
2020-10-25,03:30:00,DRY,1.70,10.33,7.0,778.00,1.4
2020-10-25,03:35:00,DRY,2.70,10.30,7.0,778.00,1.3
2020-10-25,03:40:00,DRY,3.30,9.90,9.0,778.00,1.4
2020-10-25,03:45:00,DRY,3.50,9.45,8.5,778.00,1.0
2020-10-25,03:50:00,DRY,2.83,9.60,8.3,778.00,0.7
2020-10-25,03:55:00,DRY,3.10,10.15,7.0,778.00,1.1
2020-10-25,04:00:00,DRY,2.40,10.20,7.0,778.00,1.0
2020-10-25,04:05:00,DRY,2.60,10.15,7.5,778.00,1.5
2020-10-25,04:10:00,DRY,2.30,9.87,8.0,778.00,0.6
2020-10-25,04:15:00,DRY,2.65,9.60,8.0,778.00,1.2
2020-10-25,04:20:00,DRY,1.70,9.53,8.3,778.00,1.6
2020-10-25,04:25:00,DRY,1.05,9.40,9.0,778.00,1.5
2020-10-25,04:30:00,DRY,0.80,9.30,9.0,778.00,1.8
2020-10-25,04:35:00,DRY,1.45,9.40,8.0,778.00,1.2
2020-10-25,04:40:00,DRY,2.17,9.47,8.3,778.00,1.3
2020-10-25,04:45:00,DRY,2.25,9.85,7.0,778.00,1.7
2020-10-25,04:50:00,DRY,3.10,9.87,7.7,778.00,1.3
2020-10-25,04:55:00,DRY,3.55,10.25,7.0,778.00,1.2
2020-10-25,05:00:00,DRY,3.43,10.57,7.0,778.00,1.3
2020-10-25,05:05:00,DRY,3.15,10.95,7.0,778.00,0.7
2020-10-25,05:10:00,DRY,3.13,10.87,7.3,778.00,0.9
2020-10-25,05:15:00,DRY,2.95,11.00,8.0,778.00,0.6
2020-10-25,05:20:00,DRY,3.27,10.83,7.3,778.00,1.1
2020-10-25,05:25:00,DRY,2.60,10.80,7.5,778.00,0.5
2020-10-25,05:30:00,DRY,2.83,10.93,7.3,778.00,0.8
2020-10-25,05:35:00,DRY,3.85,11.15,8.5,778.00,1.0
2020-10-25,05:40:00,DRY,3.07,11.07,10.0,777.67,1.3
2020-10-25,05:45:00,DRY,3.50,11.10,9.0,778.00,0.8
2020-10-25,05:50:00,DRY,4.00,11.07,9.7,778.00,1.3
2020-10-25,05:55:00,DRY,3.35,11.20,9.0,778.00,1.8
2020-10-25,06:00:00,DRY,3.37,11.07,7.3,778.00,1.3
2020-10-25,06:05:00,DRY,3.30,11.00,8.5,778.00,1.3
2020-10-25,06:10:00,DRY,3.97,11.07,8.3,778.00,1.4
2020-10-25,06:15:00,DRY,3.75,11.05,16.0,778.00,1.1
2020-10-25,06:20:00,DRY,3.53,11.03,20.7,778.00,1.5
2020-10-25,06:25:00,DRY,2.75,10.40,9.5,778.00,0.8
2020-10-25,06:30:00,DRY,3.43,9.63,10.7,778.00,1.2
2020-10-25,06:35:00,DRY,2.85,9.55,9.5,778.00,2.3
2020-10-25,06:40:00,DRY,3.07,9.67,8.7,778.00,1.1
2020-10-25,06:45:00,DRY,2.75,9.95,8.5,778.00,1.2
2020-10-25,06:50:00,DRY,3.57,10.10,7.3,778.00,1.5
2020-10-25,06:55:00,DRY,2.85,10.25,7.0,778.00,0.8
2020-10-25,07:00:00,DRY,3.83,10.13,7.7,778.00,1.2
2020-10-25,07:05:00,DRY,3.75,10.25,6.5,778.00,1.9
2020-10-25,07:10:00,DRY,3.73,10.03,7.3,778.00,3.1
2020-10-25,07:15:00,DRY,3.65,10.35,7.0,778.00,4.8
2020-10-25,07:20:00,DRY,4.03,10.43,7.0,778.00,7.7
2020-10-25,07:25:00,DRY,3.35,10.20,7.0,778.00,11.4
2020-10-25,07:30:00,DRY,2.50,10.13,8.0,778.00,16.8
2020-10-25,07:35:00,DRY,2.60,10.10,7.5,778.00,20.1
2020-10-25,07:40:00,DRY,2.73,10.03,8.0,778.00,21.0
2020-10-25,07:45:00,DRY,3.65,9.95,7.5,778.00,23.1
2020-10-25,07:50:00,DRY,2.87,10.00,7.3,778.00,26.2
2020-10-25,07:55:00,DRY,2.40,10.00,7.5,778.00,33.0
2020-10-25,08:00:00,DRY,4.27,10.23,7.7,778.33,159.5
2020-10-25,08:05:00,DRY,3.70,10.40,7.0,778.50,182.8
2020-10-25,08:10:00,DRY,2.97,10.70,7.0,778.67,204.2
2020-10-25,08:15:00,DRY,4.15,10.85,7.0,778.00,225.5
2020-10-25,08:20:00,DRY,4.10,11.07,7.3,778.67,247.9
2020-10-25,08:25:00,DRY,3.20,11.15,7.5,779.00,270.2
2020-10-25,08:30:00,DRY,3.20,11.30,8.3,779.00,292.5
2020-10-25,08:35:00,DRY,3.20,11.10,9.0,779.00,314.0
2020-10-25,08:40:00,DRY,3.33,11.30,12.7,779.00,335.2
2020-10-25,08:45:00,DRY,3.45,11.50,12.5,778.50,357.9
2020-10-25,08:50:00,DRY,2.93,11.50,18.3,779.00,378.5
2020-10-25,08:55:00,DRY,2.70,11.40,22.0,779.00,399.6
2020-10-25,09:00:00,DRY,2.40,11.53,18.3,779.00,420.0
2020-10-25,09:05:00,DRY,3.05,11.60,29.0,779.00,439.8
2020-10-25,09:10:00,DRY,2.03,11.50,36.3,779.00,460.0
2020-10-25,09:15:00,DRY,2.60,11.70,31.5,779.00,480.2
2020-10-25,09:20:00,DRY,2.40,11.50,37.7,779.00,499.3
2020-10-25,09:25:00,DRY,2.00,11.55,33.5,779.00,518.5
2020-10-25,09:30:00,DRY,2.73,11.70,28.3,779.00,537.1
2020-10-25,09:35:00,DRY,2.95,11.80,23.0,779.00,556.4
2020-10-25,09:40:00,DRY,2.73,11.83,32.3,779.00,574.1
2020-10-25,09:45:00,DRY,4.20,11.95,39.0,779.00,593.4
2020-10-25,09:50:00,DRY,3.40,11.80,39.7,779.00,609.9
2020-10-25,09:55:00,DRY,2.00,12.20,26.0,779.00,627.5
2020-10-25,10:00:00,DRY,2.70,12.43,21.0,779.00,645.2
2020-10-25,10:05:00,DRY,2.45,12.60,20.5,779.00,660.5
2020-10-25,10:10:00,DRY,2.20,12.73,22.7,779.00,676.3
2020-10-25,10:15:00,DRY,2.50,12.55,22.5,779.00,692.2
2020-10-25,10:20:00,DRY,2.83,12.77,20.3,779.00,707.0
2020-10-25,10:25:00,DRY,1.60,12.65,14.0,779.00,722.2
2020-10-25,10:30:00,DRY,1.63,12.73,22.0,779.00,736.3
2020-10-25,10:35:00,DRY,3.30,12.85,28.0,779.00,750.5
2020-10-25,10:40:00,DRY,2.80,12.50,33.0,779.00,763.9
2020-10-25,10:45:00,DRY,2.80,12.70,24.0,779.00,777.1
2020-10-25,10:50:00,DRY,2.37,12.97,35.3,779.00,788.4
2020-10-25,10:55:00,DRY,1.80,13.00,35.0,779.00,799.5
2020-10-25,11:00:00,DRY,3.80,13.03,35.0,779.00,811.9
2020-10-25,11:05:00,DRY,3.30,13.00,34.5,779.00,821.6
2020-10-25,11:10:00,DRY,2.27,12.87,41.7,779.00,832.6
2020-10-25,11:15:00,DRY,2.85,13.05,36.0,779.00,841.9
2020-10-25,11:20:00,DRY,2.97,12.83,48.0,779.00,851.2
2020-10-25,11:25:00,DRY,3.95,12.65,45.5,779.00,860.0
2020-10-25,11:30:00,DRY,3.83,12.77,38.0,779.00,869.5
2020-10-25,11:35:00,DRY,3.20,12.80,35.5,779.00,877.2
2020-10-25,11:40:00,DRY,3.13,13.03,36.3,779.00,885.5
2020-10-25,11:45:00,DRY,3.10,13.20,38.0,779.00,891.6
2020-10-25,11:50:00,DRY,2.80,13.37,38.7,779.00,897.7
2020-10-25,11:55:00,DRY,4.00,13.10,40.0,779.00,905.2
2020-10-25,12:00:00,DRY,4.17,13.07,40.3,779.00,909.0
2020-10-25,12:05:00,DRY,3.35,13.05,41.5,779.00,915.8
2020-10-25,12:10:00,DRY,2.93,13.37,41.7,779.00,919.7
2020-10-25,12:15:00,DRY,2.95,13.10,39.5,779.00,924.0
2020-10-25,12:20:00,DRY,4.07,13.10,42.7,779.00,928.8
2020-10-25,12:25:00,DRY,3.95,13.00,40.0,779.00,931.5
2020-10-25,12:30:00,DRY,3.07,13.10,48.0,779.00,933.6
2020-10-25,12:35:00,DRY,3.25,13.20,46.0,779.00,935.8
2020-10-25,12:40:00,DRY,3.47,13.07,43.7,779.00,939.1
2020-10-25,12:45:00,DRY,3.10,13.20,44.5,779.00,940.5
2020-10-25,12:50:00,DRY,2.10,13.33,43.7,779.00,944.4
2020-10-25,12:55:00,DRY,2.85,13.60,41.0,779.00,938.0
2020-10-25,13:00:00,DRY,1.93,13.17,44.0,779.00,934.2
2020-10-25,13:05:00,DRY,3.70,13.35,43.5,779.00,967.6
2020-10-25,13:10:00,DRY,2.57,13.23,40.0,779.00,947.8
2020-10-25,13:15:00,DRY,1.90,13.15,44.0,779.00,949.6
2020-10-25,13:20:00,DRY,1.90,13.67,39.0,778.67,871.0
2020-10-25,13:25:00,DRY,1.65,13.35,39.0,778.00,930.6
2020-10-25,13:30:00,DRY,2.60,13.50,44.0,778.00,925.4
2020-10-25,13:35:00,DRY,4.10,14.20,37.0,778.00,914.0
2020-10-25,13:40:00,DRY,1.97,13.87,40.7,778.00,915.0
2020-10-25,13:45:00,DRY,1.45,13.70,41.0,778.00,909.2
2020-10-25,13:50:00,DRY,2.03,13.63,43.0,778.00,905.8
2020-10-25,13:55:00,DRY,1.85,13.60,42.0,778.00,896.8
2020-10-25,14:00:00,DRY,2.33,13.40,51.0,778.00,889.4
2020-10-25,14:05:00,DRY,1.80,13.00,47.0,778.00,882.0
2020-10-25,14:10:00,DRY,2.37,13.00,47.0,778.00,878.2
2020-10-25,14:15:00,DRY,3.40,13.35,42.5,778.00,872.0
2020-10-25,14:20:00,DRY,1.53,13.17,45.7,778.00,864.5
2020-10-25,14:25:00,DRY,1.15,13.30,43.0,778.00,860.7
2020-10-25,14:30:00,DRY,1.63,13.10,44.3,778.00,742.6
2020-10-25,14:35:00,DRY,1.30,12.75,47.0,778.00,690.5
2020-10-25,14:40:00,DRY,1.87,12.83,47.0,778.00,836.7
2020-10-25,14:45:00,DRY,1.90,12.95,47.0,778.00,858.8
2020-10-25,14:50:00,DRY,2.47,13.27,48.3,778.00,866.3
2020-10-25,14:55:00,DRY,0.90,13.15,46.5,778.00,847.0
2020-10-25,15:00:00,DRY,1.50,13.27,46.7,778.00,818.4
2020-10-25,15:05:00,DRY,2.15,13.50,46.5,778.00,734.5
2020-10-25,15:10:00,DRY,2.27,13.03,48.7,778.00,649.7
2020-10-25,15:15:00,DRY,1.20,12.90,49.5,778.00,638.8
2020-10-25,15:20:00,DRY,2.27,12.73,48.3,778.00,541.3
2020-10-25,15:25:00,DRY,2.15,12.65,51.0,778.00,388.1
2020-10-25,15:30:00,DRY,1.33,12.67,49.7,778.00,511.0
2020-10-25,15:35:00,DRY,2.05,12.70,51.0,778.00,733.1
2020-10-25,15:40:00,DRY,2.80,12.80,52.3,778.00,570.6
2020-10-25,15:45:00,DRY,2.85,12.60,53.5,778.00,271.9
2020-10-25,15:50:00,DRY,2.27,12.20,52.3,778.00,169.7
2020-10-25,15:55:00,DRY,2.00,11.90,50.5,778.00,205.7
2020-10-25,16:00:00,DRY,1.37,11.93,50.7,778.00,381.3
2020-10-25,16:05:00,DRY,2.30,12.40,51.0,778.00,672.3
2020-10-25,16:10:00,DRY,2.83,12.77,50.0,778.00,671.6
2020-10-25,16:15:00,DRY,2.25,12.70,52.0,778.00,575.0
2020-10-25,16:20:00,DRY,1.97,12.77,51.7,778.00,538.4
2020-10-25,16:25:00,DRY,1.70,13.15,51.0,778.00,496.8
2020-10-25,16:30:00,DRY,2.07,12.57,54.3,778.00,472.7
2020-10-25,16:35:00,DRY,1.95,12.55,56.0,778.00,439.1
2020-10-25,16:40:00,DRY,1.57,12.70,53.0,778.00,409.9
2020-10-25,16:45:00,DRY,2.05,12.70,52.0,778.00,376.5
2020-10-25,16:50:00,DRY,1.77,12.70,50.7,778.00,343.4
2020-10-25,16:55:00,DRY,1.90,12.45,49.5,778.00,310.9
2020-10-25,17:00:00,DRY,1.17,12.40,51.0,778.00,286.0
2020-10-25,17:05:00,DRY,1.05,12.25,51.0,778.00,265.6
2020-10-25,17:10:00,DRY,0.93,12.33,47.3,778.00,244.8
2020-10-25,17:15:00,DRY,1.95,12.40,48.0,778.00,227.8
2020-10-25,17:20:00,DRY,3.07,12.00,50.0,778.00,195.7
2020-10-25,17:25:00,DRY,2.55,11.85,47.5,778.00,175.2
2020-10-25,17:30:00,DRY,1.67,11.77,52.0,778.00,162.0
2020-10-25,17:35:00,DRY,1.35,11.55,53.0,778.00,153.1
2020-10-25,17:40:00,DRY,1.53,11.57,54.0,778.00,139.9
2020-10-25,17:45:00,DRY,1.25,11.45,51.5,778.00,130.6